Wind_Speed
64 63 62 62 62 63 64 64 65 66 66 65 65 64 64 63 62 62 62 63 64 64 65 66 66 67 68 69 69 69 69 69 70 71 71 70 70 71 70 71 72 73
65 65 64 64 64 65 66 67 68 68 68 68 68 67 67 66 65 65 65 65 65 66 67 68 68 69 70 70 71 71 71 72 72 73 73 72 72 73 73 73 73 74
67 67 67 67 67 67 68 69 70 71 71 71 70 70 69 68 68 69 68 67 67 67 69 71 70 71 72 73 73 72 72 73 73 74 74 73 74 74 74 75 75 76
69 69 69 69 69 69 70 72 73 74 74 74 73 72 71 71 71 71 70 70 70 71 72 73 72 72 73 75 75 74 74 74 74 75 75 75 76 76 77 78 79 80
70 70 71 71 71 72 73 74 76 77 78 78 76 75 74 74 73 72 72 72 73 74 76 76 75 75 76 77 77 77 77 77 77 77 77 78 79 80 82 83 83 83
73 72 73 73 74 75 76 77 79 80 81 81 80 79 78 78 76 75 74 74 75 77 79 79 78 79 79 79 79 79 79 80 80 81 81 82 84 85 86 86 86 85
76 75 75 76 76 77 78 80 81 82 83 83 83 83 82 81 80 78 77 77 78 79 81 81 81 82 82 82 82 82 82 82 84 85 86 87 88 88 87 87 86 85
79 79 79 79 79 80 81 82 83 84 85 86 86 86 85 84 82 82 82 82 81 82 83 84 85 85 85 85 85 85 85 86 88 89 89 89 89 88 87 86 85 85
82 82 83 83 83 83 83 84 85 86 87 88 89 89 88 86 84 84 85 85 85 85 86 87 87 88 87 87 88 89 89 90 91 90 90 89 88 86 86 85 85 85
85 85 85 86 86 86 85 86 86 88 89 91 91 92 91 89 87 87 87 87 88 88 88 89 89 88 89 90 92 92 92 92 91 90 89 88 87 86 85 85 85 85
88 88 88 89 90 89 89 88 88 89 91 92 93 94 93 92 91 90 90 90 91 90 90 90 89 90 92 93 94 94 93 92 90 89 88 87 86 86 85 85 85 85
92 92 92 92 92 92 91 91 91 91 92 93 95 96 96 95 94 93 93 93 93 92 92 92 92 94 95 95 94 93 92 91 90 89 88 87 86 86 85 85 85 84
95 95 94 94 94 94 94 93 93 94 94 95 96 97 98 97 96 96 95 95 95 94 95 95 96 96 96 95 94 93 91 90 89 88 88 87 86 85 85 84 83 83
97 97 96 96 96 96 96 96 96 96 97 97 98 99 99 98 98 98 97 96 96 97 98 98 98 96 96 94 93 91 90 89 88 87 87 86 85 84 83 83 83 83
99 98 98 98 98 98 99 99 99 99 99 99 99 99 99 99 99 99 98 98 99 100 100 99 98 97 95 93 91 89 88 86 85 85 85 84 84 83 83 84 84 84
101 101 101 101 101 101 101 102 102 101 101 101 101 101 101 101 101 100 100 101 101 101 100 99 98 96 94 91 88 86 85 83 82 82 82 83 84 84 85 85 86 85
104 104 104 103 103 104 104 104 103 103 103 103 103 103 103 103 103 103 104 103 102 101 100 99 97 94 91 88 86 84 82 81 81 82 83 84 85 86 87 87 87 87
107 107 106 106 106 106 106 106 106 106 106 106 106 105 105 106 106 106 106 104 103 101 99 97 94 91 89 86 84 83 83 83 83 84 85 86 87 88 88 89 90 90
109 109 109 108 109 108 108 108 108 108 108 108 108 108 108 108 108 107 105 104 103 100 97 94 92 90 88 86 85 85 86 86 87 88 89 89 90 90 91 92 93 93
111 111 111 111 111 110 110 109 109 110 110 111 111 111 110 109 107 106 104 103 101 98 95 92 90 89 88 88 88 88 90 90 91 91 92 93 93 94 94 95 96 97
113 113 113 113 113 112 111 111 112 112 113 113 112 110 109 107 106 104 102 100 97 95 92 91 90 90 89 90 91 92 93 94 94 95 96 96 97 98 98 99 100 100
113 114 114 114 115 115 114 114 114 113 112 111 110 108 106 105 103 100 98 95 93 92 91 91 91 92 92 93 94 95 96 97 97 99 99 100 101 101 102 103 103 103
114 114 115 115 116 115 115 114 113 111 109 108 106 105 103 101 99 97 95 93 92 92 92 93 94 95 96 96 97 98 99 100 101 102 103 103 104 105 105 106 106 106
113 113 113 113 113 112 112 111 109 108 106 105 103 101 100 98 97 96 95 95 95 95 96 97 98 99 99 100 100 101 102 103 104 104 105 106 107 108 108 108 108 108
109 109 108 108 108 108 107 107 106 105 104 103 102 100 99 98 98 98 98 98 98 99 100 100 101 102 102 103 103 104 105 106 107 107 108 109 110 110 111 111 111 111
104 104 103 103 103 102 103 103 103 103 102 102 101 100 100 100 100 100 101 101 102 103 103 104 105 105 105 106 106 107 107 109 110 110 111 112 113 113 113 113 113 113
Wind_Direction
297 298 298 298 298 298 298 298 298 299 300 300 301 301 300 300 300 300 300 301 301 301 301 300 300 299 300 300 300 301 300 300 300 299 299 299 298 297 296 295 294 294
296 296 296 296 296 297 297 298 298 299 300 300 299 299 299 299 300 300 300 300 301 301 300 299 299 299 299 299 300 300 300 300 299 299 299 299 298 298 297 295 294 294
294 294 295 295 296 296 296 296 297 297 297 296 296 297 298 299 299 299 300 300 300 300 299 298 299 299 299 299 299 299 299 299 299 299 299 299 298 298 297 296 295 295
292 293 294 295 295 295 295 294 294 294 294 294 295 297 298 298 297 298 299 300 300 300 298 298 298 299 299 299 299 300 299 299 298 298 298 298 298 297 296 296 295 295
291 292 293 293 294 293 293 292 292 292 292 294 296 297 297 296 296 297 299 300 300 299 298 298 298 299 299 299 299 299 299 298 298 298 298 298 297 296 296 296 295 295
290 291 291 291 292 291 291 291 291 291 292 294 296 296 296 296 297 299 300 300 299 298 298 298 298 298 298 298 298 298 298 298 297 297 297 297 297 297 296 296 295 295
289 290 289 289 290 290 289 290 290 292 293 294 295 295 296 297 299 300 299 299 298 297 297 297 298 298 298 298 298 297 297 297 297 297 297 297 297 297 296 296 295 295
288 288 288 288 289 289 289 290 291 292 293 293 294 295 296 297 298 299 298 298 297 297 297 297 297 298 298 298 298 297 297 297 297 297 297 297 296 296 296 295 295 295
288 288 288 288 289 289 289 290 292 292 292 293 293 294 295 296 297 297 297 296 296 296 296 297 297 298 298 298 298 297 297 297 297 297 296 296 296 295 295 295 295 295
288 288 288 288 288 289 290 290 291 292 292 292 293 293 294 295 295 295 295 295 295 295 296 296 296 297 297 297 297 297 297 297 297 297 296 296 295 295 295 295 294 294
287 288 288 288 288 289 290 290 291 291 291 291 292 292 293 294 294 294 294 294 295 295 296 296 296 296 297 297 297 297 297 297 297 296 296 295 295 295 295 295 294 294
287 287 287 288 288 289 290 290 290 290 290 290 291 291 292 293 293 294 294 295 295 296 296 296 296 297 297 297 297 297 297 297 296 296 295 295 295 295 295 295 294 294
286 286 287 287 288 288 289 289 289 289 289 289 290 291 292 292 293 293 294 295 295 295 295 296 297 297 297 297 297 297 296 296 296 295 295 295 295 295 295 295 294 294
284 285 286 286 286 287 287 287 287 288 288 289 290 290 291 292 292 293 294 295 295 295 296 296 297 297 297 296 296 296 295 295 295 295 295 294 295 295 294 294 294 295
283 283 284 284 285 285 286 286 287 288 288 289 289 290 291 291 292 293 294 294 294 295 296 296 296 296 295 295 295 294 294 294 294 293 293 294 294 294 294 294 294 295
283 283 284 284 285 286 286 287 288 288 289 289 289 290 291 291 292 293 293 294 294 295 295 295 295 295 294 294 293 293 292 292 292 292 292 292 293 293 294 295 295 296
283 284 284 285 286 286 287 287 288 288 289 289 289 290 290 291 292 292 293 293 294 294 294 294 294 293 293 292 292 291 290 290 290 290 290 291 292 293 294 295 296 297
283 284 284 285 285 286 286 287 287 287 288 288 289 289 290 291 291 292 292 293 293 293 293 293 292 291 291 290 289 289 289 288 289 289 290 291 292 293 294 295 296 297
283 284 284 285 285 285 286 286 287 287 287 288 288 289 290 290 291 291 292 292 292 292 291 291 290 289 288 288 288 287 288 288 289 289 290 291 292 293 294 295 296 296
282 283 284 284 285 285 286 286 287 287 287 288 288 289 290 290 290 290 290 290 290 290 289 288 287 287 287 287 287 287 288 288 289 290 291 292 293 294 295 295 296 296
282 283 283 284 284 285 285 285 286 286 287 287 288 289 289 289 289 289 288 288 288 287 287 286 286 286 286 286 287 287 288 289 290 291 292 292 293 294 295 295 296 296
281 282 283 283 283 284 284 284 285 285 286 286 287 287 287 287 287 287 286 286 285 285 285 285 285 285 286 286 287 288 289 289 290 291 292 293 294 295 295 296 296 296
280 281 281 282 283 283 284 284 285 285 285 285 285 285 285 285 284 284 283 283 282 282 282 283 284 285 285 286 287 288 289 290 291 292 293 294 295 295 296 296 296 297
280 281 281 282 283 283 284 284 284 284 284 284 283 283 283 282 282 282 281 281 281 281 281 282 282 283 285 286 287 288 289 290 291 292 293 294 295 295 295 296 296 296
280 281 281 282 282 282 283 283 283 283 282 282 282 282 281 281 281 280 280 280 281 281 281 282 282 283 284 285 287 288 289 291 292 293 294 294 295 295 295 295 295 295
279 279 280 280 280 280 280 281 281 281 281 281 281 281 281 281 280 280 281 281 281 281 282 282 283 284 285 286 287 289 290 291 292 293 294 294 294 294 294 294 294 294
Height
10717 10715 10712 10710 10707 10705 10702 10699 10697 10695 10693 10693 10691 10689 10687 10686 10685 10683 10681 10679 10676 10673 10670 10667 10665 10661 10658 10655 10652 10650 10648 10644 10641 10637 10635 10633 10631 10627 10624 10621 10617 10615
10710 10708 10705 10703 10701 10699 10696 10693 10690 10689 10687 10685 10683 10681 10679 10678 10677 10675 10674 10672 10670 10666 10662 10659 10656 10654 10651 10648 10645 10643 10640 10636 10632 10628 10626 10625 10622 10618 10616 10612 10609 10607
10703 10700 10698 10696 10695 10692 10689 10686 10684 10681 10679 10677 10675 10674 10673 10671 10669 10667 10666 10665 10663 10659 10654 10651 10648 10645 10642 10639 10637 10635 10632 10629 10624 10620 10618 10617 10613 10610 10607 10603 10600 10598
10695 10693 10691 10689 10687 10685 10682 10678 10676 10673 10670 10669 10668 10667 10666 10664 10662 10660 10658 10656 10654 10650 10646 10643 10641 10637 10634 10631 10628 10626 10623 10619 10616 10612 10610 10608 10604 10601 10598 10595 10592 10588
10688 10686 10684 10681 10680 10677 10674 10670 10667 10664 10661 10660 10659 10659 10657 10656 10654 10653 10651 10648 10645 10641 10637 10634 10633 10629 10626 10623 10620 10617 10613 10610 10606 10603 10602 10599 10595 10592 10589 10585 10582 10579
10680 10678 10676 10674 10671 10668 10665 10661 10658 10655 10652 10651 10650 10649 10647 10646 10645 10644 10642 10640 10636 10631 10627 10625 10623 10620 10617 10614 10611 10608 10605 10601 10597 10594 10593 10590 10586 10583 10579 10575 10572 10569
10671 10670 10668 10666 10663 10660 10656 10653 10650 10647 10644 10641 10640 10638 10638 10636 10635 10634 10632 10630 10627 10623 10618 10615 10613 10610 10607 10605 10602 10599 10595 10592 10588 10585 10582 10579 10575 10572 10568 10564 10561 10558
10663 10661 10658 10657 10655 10652 10648 10644 10642 10639 10635 10632 10629 10628 10628 10627 10626 10624 10621 10619 10617 10613 10609 10606 10603 10599 10597 10594 10591 10588 10585 10582 10578 10575 10572 10568 10564 10561 10557 10553 10550 10546
10654 10651 10648 10647 10645 10642 10639 10636 10633 10630 10626 10623 10619 10618 10618 10618 10618 10615 10611 10609 10606 10604 10600 10597 10593 10590 10586 10583 10580 10577 10574 10571 10567 10564 10561 10557 10554 10550 10547 10544 10540 10536
10643 10641 10638 10636 10633 10632 10631 10628 10625 10621 10616 10613 10610 10607 10607 10607 10607 10605 10602 10599 10596 10594 10591 10588 10584 10580 10576 10572 10568 10565 10563 10559 10556 10553 10549 10546 10543 10539 10536 10533 10530 10526
10631 10629 10628 10625 10622 10621 10620 10619 10617 10613 10608 10604 10600 10597 10596 10596 10595 10593 10591 10588 10585 10582 10580 10577 10574 10570 10566 10561 10557 10554 10551 10548 10545 10541 10538 10535 10531 10528 10525 10522 10518 10515
10619 10618 10617 10614 10612 10611 10610 10609 10606 10603 10599 10595 10591 10588 10585 10584 10583 10581 10579 10576 10573 10570 10567 10564 10562 10559 10555 10551 10547 10543 10540 10536 10533 10530 10526 10523 10520 10517 10514 10511 10508 10505
10608 10607 10607 10605 10603 10601 10600 10598 10596 10593 10590 10586 10582 10579 10575 10573 10572 10570 10568 10565 10561 10558 10554 10552 10550 10547 10543 10539 10536 10533 10529 10525 10521 10518 10514 10511 10509 10506 10503 10500 10497 10494
10599 10598 10597 10595 10593 10591 10589 10587 10585 10582 10580 10576 10572 10569 10565 10562 10560 10558 10556 10554 10550 10546 10543 10540 10538 10534 10530 10528 10525 10522 10518 10514 10510 10506 10503 10500 10497 10495 10492 10488 10485 10482
10589 10588 10587 10585 10583 10580 10577 10575 10573 10571 10569 10565 10561 10557 10554 10551 10549 10547 10545 10542 10538 10535 10531 10529 10526 10522 10519 10516 10514 10511 10507 10504 10500 10496 10493 10490 10487 10484 10481 10477 10474 10471
10578 10576 10574 10573 10571 10568 10565 10563 10561 10559 10557 10553 10549 10546 10543 10540 10538 10536 10533 10530 10527 10524 10520 10517 10514 10510 10508 10505 10503 10500 10497 10494 10490 10486 10483 10480 10477 10474 10470 10466 10463 10460
10565 10564 10562 10561 10558 10555 10553 10551 10549 10547 10544 10540 10537 10534 10531 10529 10527 10524 10521 10518 10515 10512 10509 10506 10502 10499 10496 10494 10491 10489 10486 10483 10481 10477 10474 10470 10467 10463 10460 10456 10452 10449
10553 10552 10551 10549 10547 10544 10541 10540 10537 10535 10532 10528 10526 10523 10520 10518 10515 10511 10508 10505 10503 10500 10497 10494 10490 10487 10485 10483 10480 10478 10475 10473 10470 10467 10464 10460 10457 10454 10450 10446 10442 10438
10542 10541 10539 10536 10534 10531 10529 10527 10524 10522 10518 10515 10513 10511 10508 10506 10503 10499 10496 10493 10491 10488 10486 10483 10479 10475 10473 10472 10469 10466 10463 10461 10458 10455 10452 10449 10446 10443 10440 10435 10431 10427
10530 10529 10526 10523 10521 10518 10516 10514 10511 10507 10504 10501 10500 10498 10496 10493 10490 10487 10484 10481 10479 10476 10474 10471 10467 10464 10462 10460 10457 10454 10451 10448 10445 10442 10439 10436 10433 10430 10427 10423 10419 10415
10518 10515 10513 10510 10508 10506 10504 10502 10498 10495 10492 10488 10486 10485 10483 10480 10477 10475 10472 10469 10467 10464 10461 10459 10455 10452 10450 10448 10445 10442 10438 10435 10432 10429 10426 10423 10420 10417 10414 10410 10406 10402
10505 10502 10500 10497 10494 10493 10491 10489 10485 10483 10480 10477 10474 10472 10470 10467 10464 10462 10460 10458 10455 10452 10449 10446 10443 10440 10438 10436 10432 10429 10426 10423 10419 10416 10413 10410 10407 10403 10400 10396 10392 10388
10493 10491 10488 10484 10481 10479 10477 10474 10472 10470 10467 10464 10462 10460 10457 10454 10452 10450 10448 10446 10443 10440 10437 10434 10431 10427 10426 10423 10420 10416 10414 10411 10407 10403 10400 10397 10393 10390 10386 10381 10378 10374
10480 10477 10475 10472 10468 10465 10462 10460 10458 10456 10453 10451 10449 10447 10445 10442 10440 10438 10435 10433 10430 10428 10425 10422 10418 10415 10412 10410 10407 10403 10400 10397 10393 10391 10388 10383 10379 10375 10372 10368 10364 10361
10465 10463 10461 10459 10455 10452 10449 10446 10444 10442 10439 10437 10435 10433 10431 10429 10427 10425 10422 10419 10417 10414 10411 10408 10405 10402 10399 10396 10393 10390 10387 10383 10379 10377 10374 10369 10365 10361 10357 10354 10350 10347
10451 10449 10447 10445 10443 10440 10437 10434 10432 10428 10426 10424 10421 10419 10417 10415 10413 10411 10408 10405 10402 10400 10397 10394 10391 10388 10385 10382 10379 10376 10374 10370 10365 10363 10359 10355 10351 10348 10344 10340 10336 10332